Regional Weather Roundup
Issued by NWS

Home | Current Version | Previous Version | Text Only | Print | Product List | Glossary On
Versions: 1 2 3 4 5 6 7 8 9 10 11 12 13 14 15 16 17 18 19 20 21 22 23 24 25 26 27 28 29 30 31 32 33 34 35 36 37 38 39 40 41 42 43 44 45 46 47 48 49 50
000
ASUS43 KDMX 222201
RWRIA

WEATHER ROUNDUP FOR IOWA
NATIONAL WEATHER SERVICE DES MOINES IA
400 PM CST WED NOV 22 2017

NOTE: "FAIR" INDICATES FEW OR NO CLOUDS BELOW 12,000 FEET WITH NO
SIGNIFICANT WEATHER AND/OR OBSTRUCTIONS TO VISIBILITY.

* - THESE STATIONS ARE NOT NWS STATIONS...THUS NOT UNDER NWS
QUALITY CONTROL.  THEY ALSO DO NOT REPORT WEATHER SUCH
AS PRECIPITATION OR FOG.

IAZ001>003-012>014-020>022-031>034-043>046-222300-
   NORTHWEST IOWA

CITY           SKY/WX    TMP DP  RH WIND       PRES   REMARKS
CARROLL *      CLOUDY    36  14  41 S15G22    30.13F WCI  26
CHEROKEE *     CLOUDY    36  15  42 S14G21    30.09F WCI  27
DENISON *      CLOUDY    37  16  41 S14G22    30.14F WCI  29
LE MARS *      PTCLDY    37  18  44 SW17G25   30.08S WCI  28
ORANGE CITY *  CLOUDY    36  19  51 S17G23    30.05F WCI  25
SHELDON *      CLOUDY    34  14  44 S15G23    30.03F WCI  24
SIOUX CITY     CLEAR     38  17  42 S18       30.10F WCI  28
SPENCER        CLOUDY    36  14  40 S16       30.06F WCI  26
STORM LAKE *   CLOUDY    36  14  41 S18       30.08F WCI  25
$$

IAZ055>058-069>071-079>083-090>094-222300-
   SOUTHWEST IOWA

CITY           SKY/WX    TMP DP  RH WIND       PRES   REMARKS
ATLANTIC *     CLOUDY    37  16  41 S13G20    30.17S WCI  29
AUDUBON *      PTCLDY    37  14  38 S12       30.16S WCI  30
CLARINDA *     PTCLDY    39  16  38 S13         N/A  WCI  32
COUNCIL BLFS * CLOUDY    39  16  38 S12       30.15F WCI  32
CRESTON *      PTCLDY    36  14  41 S13       30.20S WCI  27
HARLAN  *      MOCLDY    36  16  44 S15G21    30.18F WCI  26
LAMONI         CLOUDY    37  14  38 S10       30.21F WCI  30
RED OAK *      CLOUDY    37  16  41 S13       30.18S WCI  29
SHENANDOAH *   CLOUDY    41  16  36 S9        30.20S
$$

IAZ047>049-059>061-072>074-084-222300-
   CENTRAL IOWA

CITY           SKY/WX    TMP DP  RH WIND       PRES   REMARKS
AMES           CLOUDY    36  16  44 S9        30.18F WCI  29
ANKENY *       CLOUDY    37  14  38 S9        30.21R WCI  31
BOONE *        CLOUDY    36  14  41 S9        30.15S WCI  29
CHARITON *     CLOUDY    37  12  35 S10       30.20F WCI  30
DES MOINES     CLOUDY    38  13  35 S12       30.19F WCI  30
GRINNELL*      CLOUDY    35  13  39 SW9       30.22S WCI  28
KNOXVILLE *    CLOUDY    39   9  28 S9G16     30.19F WCI  33
MARSHALLTOWN   CLOUDY    35  14  42 S12       30.19F WCI  27
NEWTON *       CLOUDY    37  12  35 S9        30.20F WCI  31
PELLA *        CLOUDY    38  10  31 SW10      30.22F WCI  31
PERRY *        CLOUDY    37  12  37 S9        30.18R WCI  30
$$

IAZ004>006-015-016-023>025-035-036-222300-
   NORTH CENTRAL IOWA

CITY           SKY/WX    TMP DP  RH WIND       PRES   REMARKS
ALGONA *       CLOUDY    34  16  47 S18G24    30.09F WCI  23
CLARION *      MOCLDY    34  14  44 S16       30.13F WCI  23
ESTHERVILLE    CLOUDY    33  15  47 S18G26    30.05F WCI  22
FORT DODGE *   CLOUDY    35  15  44 S12       30.14F WCI  27
MASON CITY     CLOUDY    33  13  43 S13       30.13F WCI  24
FOREST CITY *  CLOUDY    34  16  47 S9        30.11F WCI  26
WEBSTER CITY * CLOUDY    36  14  41 S17       30.12F WCI  25
IOWA FALLS *   CLOUDY    35  16  44 S13       30.17F WCI  27
$$

IAZ007>011-017>019-026>030-037>042-050>054-066-222300-
   NORTHEAST IOWA

CITY           SKY/WX    TMP DP  RH WIND       PRES   REMARKS
CEDAR RAPIDS   CLOUDY    34  13  41 S8        30.21F WCI  27
CHARLES CITY * CLOUDY    32  12  43 S9        30.15F WCI  24
CLINTON *      CLOUDY    33  16  49 SW7       30.25F WCI  27
DECORAH *      CLOUDY    30  14  51 SW7       30.17S WCI  23
DUBUQUE        PTCLDY    31  14  49 SW9       30.21S WCI  23
MONTICELLO *   CLOUDY    34  14  44 SW7       30.23S WCI  28
OELWEIN *      CLOUDY    32  14  47 S12       30.19F WCI  23
WATERLOO       CLOUDY    33  12  41 SW8       30.19F WCI  26
$$

IAZ064-065-067-068-078-222300-
   EAST CENTRAL IOWA

CITY           SKY/WX    TMP DP  RH WIND       PRES   REMARKS
DAVENPORT      CLOUDY    32  16  51 SW7       30.26F WCI  26
IOWA CITY      PTCLDY    36  15  42 S7        30.26F WCI  30
MT. PLEASANT * PTCLDY    35  14  41 SW7       30.26F WCI  29
MUSCATINE *    PTCLDY    36  16  44 SW6       30.27S WCI  31
$$

IAZ062-063-075>077-085>089-095>099-222300-
   SOUTHEAST IOWA

CITY           SKY/WX    TMP DP  RH WIND       PRES   REMARKS
BURLINGTON     PTCLDY    35  18  49 S7        30.26F WCI  29
FAIRFIELD *    PTCLDY    37  12  35 S6        30.24F WCI  33
FORT MADISON * PTCLDY    36  16  44 SW3       30.27F
KEOKUK *       PTCLDY    37  14  38 S6        30.26F WCI  33
OSKALOOSA *      N/A     37  12  35 SW10      30.22F WCI  30
OTTUMWA        CLEAR     39  12  33 S8        30.22F WCI  33
WASHINGTON *   MOCLDY    36  14  41 S7        30.25  WCI  30
$$

ABBREVIATIONS USED IN REMARKS
   TC - TEMPERATURES IN CELSIUS
  WCI - WIND CHILL INDEX
   HX - HEAT INDEX
  VSB - VISIBILITY
$$





USA.gov is the U.S. government's official web portal to all federal, state and local government web resources and services.